Location: Adavinekkalam
(16.6301°N, 80.7229°E)
Time: 05:47:19
(UTC+00:00)

Delta 202 - Pass Details

Date: 15 May 2026
Orbit: 781 x 2712 km, 18.5° (Epoch: 6 June)

Event Time Altitude Azimuth Distance (km) Brightness Sun altitude
Rises 13:16:36 0° 276° (W) 3,498 8.8 -4.4°
Reaches altitude 10° 13:19:21 10° 272° (W) 2,431 7.5 -5.0°
Maximum altitude 13:24:40 52° 196° (SSW) 958 4.0 -6.2°
Drops below altitude 10° 13:29:53 10° 120° (ESE) 2,393 5.4 -7.3°
Enters shadow 13:30:14 - 119° (ESE) 2,525 5.5 -7.4°
